Es ist keine erh├Âhte Aufmerksamkeit aufgrund des Wetters notwendig.    Es gibt keine Warnungen.
Webcam Vorhersage DWD Regenradar Wetterlage NRW Blitze Wind GFS-Modell
webcam


Kleve -D├╝ffelward more information Kleve -D├╝ffelward


Goch more information Goch


Thunder radar more information blitzortung!


Weitere Templates dieser Seite und andere Webseiten:

Meteotemplate

Awekas - Template

weather34 - Template

Wetter aus Willich

Hubert Reyers' Wetter


te
World Weather Websites
 

METAR-Meldungen aus der Umgebung

   
EHDL - Nijmegen
Aktualisierung: 16-09-2021 11:55
Stark bew├Âlkt  
Stark bew├Âlkt  
   Wind: WNW 16.7 km/h
Wind: WNW 16.7 km/h
Temperatur: 18°C
Taupunkt: 12°C
Luftfeuchte: 68%
Luftdruck: 1016 hPa
Bew├Âlkt: Stark bew├Âlkt
Sichtbarkeit: More than 10 km
Bew├Âlkung: Stark bew├Âlkt 2200 ft,
Stark bew├Âlkt 2600 ft
EHDL 160955Z AUTO 30009KT 240V010 9999 BKN022 BKN026 18/12 Q1016 WHT
EHDL - Arnhem
Aktualisierung: 16-09-2021 11:55
Stark bew├Âlkt  
Stark bew├Âlkt  
   Wind: WNW 16.7 km/h
Wind: WNW 16.7 km/h
Temperatur: 18°C
Taupunkt: 12°C
Luftfeuchte: 68%
Luftdruck: 1016 hPa
Bew├Âlkt: Stark bew├Âlkt
Sichtbarkeit: More than 10 km
Bew├Âlkung: Stark bew├Âlkt 2200 ft,
Stark bew├Âlkt 2600 ft
EHDL 160955Z AUTO 30009KT 240V010 9999 BKN022 BKN026 18/12 Q1016 WHT
EHAM - Amsterdam
Aktualisierung: 16-09-2021 11:55
leicht bew├Âlkt  
leicht bew├Âlkt  
   Wind: WNW 18.5 km/h
Wind: WNW 18.5 km/h
Temperatur: 19°C
Taupunkt: 14°C
Luftfeuchte: 73%
Luftdruck: 1017 hPa
Bew├Âlkt: leicht bew├Âlkt
Sichtbarkeit: More than 10 km
Bew├Âlkung: leicht bew├Âlkt 2300 ft
EHAM 160955Z 29010KT 250V320 9999 FEW023 19/14 Q1017 NOSIG
EHDL - Ede
Aktualisierung: 16-09-2021 11:55
Stark bew├Âlkt  
Stark bew├Âlkt  
   Wind: WNW 16.7 km/h
Wind: WNW 16.7 km/h
Temperatur: 18°C
Taupunkt: 12°C
Luftfeuchte: 68%
Luftdruck: 1016 hPa
Bew├Âlkt: Stark bew├Âlkt
Sichtbarkeit: More than 10 km
Bew├Âlkung: Stark bew├Âlkt 2200 ft,
Stark bew├Âlkt 2600 ft
EHDL 160955Z AUTO 30009KT 240V010 9999 BKN022 BKN026 18/12 Q1016 WHT
EHDL - Emmen
Aktualisierung: 16-09-2021 11:55
Stark bew├Âlkt  
Stark bew├Âlkt  
   Wind: WNW 16.7 km/h
Wind: WNW 16.7 km/h
Temperatur: 18°C
Taupunkt: 12°C
Luftfeuchte: 68%
Luftdruck: 1016 hPa
Bew├Âlkt: Stark bew├Âlkt
Sichtbarkeit: More than 10 km
Bew├Âlkung: Stark bew├Âlkt 2200 ft,
Stark bew├Âlkt 2600 ft
EHDL 160955Z AUTO 30009KT 240V010 9999 BKN022 BKN026 18/12 Q1016 WHT
EHAM - Den Haag
Aktualisierung: 16-09-2021 11:55
leicht bew├Âlkt  
leicht bew├Âlkt  
   Wind: WNW 18.5 km/h
Wind: WNW 18.5 km/h
Temperatur: 19°C
Taupunkt: 14°C
Luftfeuchte: 73%
Luftdruck: 1017 hPa
Bew├Âlkt: leicht bew├Âlkt
Sichtbarkeit: More than 10 km
Bew├Âlkung: leicht bew├Âlkt 2300 ft
EHAM 160955Z 29010KT 250V320 9999 FEW023 19/14 Q1017 NOSIG
EHAM - Apeldoorn
Aktualisierung: 16-09-2021 11:55
leicht bew├Âlkt  
leicht bew├Âlkt  
   Wind: WNW 18.5 km/h
Wind: WNW 18.5 km/h
Temperatur: 19°C
Taupunkt: 14°C
Luftfeuchte: 73%
Luftdruck: 1017 hPa
Bew├Âlkt: leicht bew├Âlkt
Sichtbarkeit: More than 10 km
Bew├Âlkung: leicht bew├Âlkt 2300 ft
EHAM 160955Z 29010KT 250V320 9999 FEW023 19/14 Q1017 NOSIG
EHAM - Leeuwarden
Aktualisierung: 16-09-2021 11:55
leicht bew├Âlkt  
leicht bew├Âlkt  
   Wind: WNW 18.5 km/h
Wind: WNW 18.5 km/h
Temperatur: 19°C
Taupunkt: 14°C
Luftfeuchte: 73%
Luftdruck: 1017 hPa
Bew├Âlkt: leicht bew├Âlkt
Sichtbarkeit: More than 10 km
Bew├Âlkung: leicht bew├Âlkt 2300 ft
EHAM 160955Z 29010KT 250V320 9999 FEW023 19/14 Q1017 NOSIG
TNCC - Willemstad
Aktualisierung: 16-09-2021 11:00
leicht bew├Âlkt  
leicht bew├Âlkt  
   Wind: OSO 20.4 km/h
Wind: OSO 20.4 km/h
Temperatur: 28°C
Hitzeindex: 33°C
Taupunkt: 25°C
Luftfeuchte: 84%
Luftdruck: 1012 hPa
Bew├Âlkt: leicht bew├Âlkt
Sichtbarkeit: More than 10 km
Bew├Âlkung: leicht bew├Âlkt 1800 ft
TNCC 160900Z 11011KT 9999 FEW018 28/25 Q1012 NOSIG
EHEH - Eindhoven
Aktualisierung: 16-09-2021 11:55
Stark bew├Âlkt  
Stark bew├Âlkt  
   Wind: Westen 13 km/h
Wind: Westen 13 km/h
Temperatur: 19°C
Taupunkt: 13°C
Luftfeuchte: 68%
Luftdruck: 1017 hPa
Bew├Âlkt: Stark bew├Âlkt
Sichtbarkeit: More than 10 km
Bew├Âlkung: Stark bew├Âlkt 2200 ft,
Stark bew├Âlkt 31000 ft
EHEH 160955Z AUTO 28007KT 240V020 9999 BKN022 BKN310 19/13 Q1017 WHT NOSIG
EHAM - Middelburg
Aktualisierung: 16-09-2021 11:55
leicht bew├Âlkt  
leicht bew├Âlkt  
   Wind: WNW 18.5 km/h
Wind: WNW 18.5 km/h
Temperatur: 19°C
Taupunkt: 14°C
Luftfeuchte: 73%
Luftdruck: 1017 hPa
Bew├Âlkt: leicht bew├Âlkt
Sichtbarkeit: More than 10 km
Bew├Âlkung: leicht bew├Âlkt 2300 ft
EHAM 160955Z 29010KT 250V320 9999 FEW023 19/14 Q1017 NOSIG
EHAM - Delfzijl
Aktualisierung: 16-09-2021 11:55
leicht bew├Âlkt  
leicht bew├Âlkt  
   Wind: WNW 18.5 km/h
Wind: WNW 18.5 km/h
Temperatur: 19°C
Taupunkt: 14°C
Luftfeuchte: 73%
Luftdruck: 1017 hPa
Bew├Âlkt: leicht bew├Âlkt
Sichtbarkeit: More than 10 km
Bew├Âlkung: leicht bew├Âlkt 2300 ft
EHAM 160955Z 29010KT 250V320 9999 FEW023 19/14 Q1017 NOSIG

Script entwickelt von  Saratoga-weather.org Angepasst f├╝r das Template von  Weerstation Leuven

Sie finden Wetter-Infos dieser Station auch auf:

UK Metoffice

European Weather Network

WeatherCloud

Weather Underground

AWEKAS

Neuwetter

Wettersektor

Von uns verwendete Ausr├╝stung:

Wetterstation
Davis VP2

Wetterprogramm
Meteobridge

WetterComputer
Computer

Anbieter
My provider

Davis VP2

Meteobridge

Computer

My provider